Погода в Язуле

Россия / Республика Алтай     50°36′59″N   88°46′22″E
темп.,
°C
ветер,
м/с
пор.,
м/с
влажн.,
%
обл.,
%
осадки,
мм/ч
давл.,
гПа
погр.,
м
21 апреля, ср
ср2101:00−10ссз2391100 2.3 1018336
04:00−11ссз2290100 0.6 1018276
07:00−11ссз119099 0.8 1019204
10:00−8зсз116980 0.0 1016581
13:00−4зсз125899 0.1 10121188
16:00−3сз2353100 0.1 10101368
19:00−4зсз475898 0.1 1012468
22:00−8зсз1288100 0.0 101867
22 апреля, чт
чт2201:00−9сз2494100 0.3 1020371
04:00−10сз2391100 0.3 1023318
07:00−11ссз1290100 0.4 1026299
10:00−9с2266100 0.1 10251009
13:00−7с2263100 0.5 10241124
16:00−5с225899 0.6 10231187
19:00−6с2282100 1.0 1026464
22:00−8с2392100 0.9 1030384
23 апреля, пт
пт2301:00−10с2393100 1.9 1032369
04:00−11ссв129595 0.3 1033108
07:00−11ссв1190100 0.4 1034196
10:00−8св1169100 0.3 1032808
13:00−6ссв1151100 0.4 10291347
16:00−6юв0171100 0.9 1028736
19:00−7з1291100 3.8 1030352
22:00−9зюз1193100 0.9 103263
24 апреля, сб
сб2401:00−10ю1192100 1.2 1033102
04:00−10юз0194100 0.9 1032181
07:00−10зсз1293100 2.2 1031362
10:00−8зсз3479100 0.7 10301042
13:00−6зсз3365100 1.3 10271463
16:00−6сз4570100 0.8 10261124
19:00−7з1282100 2.8 1026428
22:00−8з2595100 3.5 1028447
25 апреля, вс
вс2501:00−10зсз2596100 5.3 1031323
04:00−11зсз1298100 0.4 103291
07:00−13зсз1199100 0.5 103545
10:00−8сз2375100 0.1 10311042
13:00−6сз4467100 0.3 10281508
16:00−4сз4462100 0.2 10261512
19:00−6с127734 0.6 102878
22:00−15юв229162 0.1 103812